Location: Belfast
(54.5830°N, 5.9330°W)
Time: 19:36:18
(UTC+01:00)

Coronas F rocket - Visible Passes

Search period start: 26 August 2016 00:00
Search period end: 05 September 2016 00:00
Orbit: 316 x 320 km, 82.5° (Epoch: 26 August)

Date Brightness Start Highest point End Pass type
(mag) Time Alt. Az. Time Alt. Az. Time Alt. Az.
26 Aug 4.6 02:45:14 10° NE 02:45:43 10° ENE 02:46:13 10° ENE visible
26 Aug 1.4 04:15:04 10° NNW 04:17:42 51° W 04:17:43 51° W visible
27 Aug 3.9 02:59:18 10° NNE 03:01:16 18° ENE 03:01:31 18° ENE visible
27 Aug 2.8 04:30:41 10° NW 04:32:27 23° WNW 04:32:27 23° WNW visible
28 Aug 3.1 03:14:12 10° N 03:16:14 31° NE 03:16:14 31° NE visible
28 Aug 3.7 04:46:43 10° WNW 04:47:09 12° WNW 04:47:09 12° WNW visible
29 Aug 2.9 03:29:19 10° N 03:30:57 33° N 03:30:57 33° N visible
30 Aug 4.7 02:14:25 10° NE 02:14:44 11° NE 02:14:44 11° NE visible
30 Aug 3.4 03:44:35 10° NNW 03:45:40 21° NNW 03:45:40 21° NNW visible
31 Aug 4.5 02:28:33 10° NNE 02:29:26 15° NE 02:29:26 15° NE visible
31 Aug 4.0 04:00:02 10° NW 04:00:21 12° NW 04:00:21 12° NW visible
01 Sep 4.4 02:43:17 10° N 02:44:06 17° NNE 02:44:06 17° NNE visible
02 Sep 4.4 02:58:14 10° N 02:58:45 14° N 02:58:45 14° N visible
03 Sep 4.5 03:13:20 10° NNW 03:13:21 10° NNW 03:13:21 10° NNW visible
